Flag for U.S.A. Weather past 2 weeks in Portsmouth, Virginia, U.S.A.

Now
69 °F

Passing clouds.


Feels Like: 69 °F
Forecast: 63 / 83 °F
Wind: 3 mph from Northwest

Location: Norfolk Naval Air Station

Current Time: Jul 30, 2014 at 2:21:11 AM

Latest Report: Jul 30, 2014 at 1:59 AM


Visibility: 10 mi

Pressure: 30.01 "Hg

Humidity: 73%

Dew point: 60 °F

Location of PortsmouthLocation

Historic Weather in Portsmouth — Graph

°F

Portsmouth temperature yesterday

Maximum temperature yesterday: 79 °F (at 3:59 PM)
Minimum temperature yesterday: 69 °F (at 5:59 AM)
Average temperature yesterday: 74 °F

Past Weeks' High & Low Weather Summary

 TemperatureHumidityPressure
High92 °F (Jul 15, 12:59 PM)94% (Jul 24, 7:59 PM)30.23 "Hg (Jul 24, 7:59 PM)
Low69 °F (Jul 18, 1:59 AM)38% (Jul 18, 3:59 PM)29.65 "Hg (Jul 28, 4:59 AM)
Average78 °F70%29.99 "Hg
* Reported Jul 15 12:59 AM — Jul 30 12:59 AM, Portsmouth, Weather by CustomWeather, © 2014

Note: Actual official high and low records may vary slightly from our data, if they occured in-between our weather recording intervals... More about our weather records

Advertising

Portsmouth weather history for previous 24 hours

 ConditionsComfort  
Time TempWeatherWind HumidityBarometerVisibility
12:59 AM
Jul 30
70 °FPassing clouds.No wind68%30.02 "Hg10 mi
11:59 PM
Jul 29
71 °FPassing clouds.3 mph66%30.02 "Hg10 mi
10:59 PM70 °FPassing clouds.5 mph68%30.01 "Hg10 mi
9:59 PM72 °FPassing clouds.3 mph57%30.00 "Hg10 mi
8:59 PM73 °FScattered clouds.3 mph55%29.98 "Hg10 mi
7:59 PM74 °FScattered clouds.7 mph56%29.97 "Hg10 mi
6:59 PM76 °FPassing clouds.7 mph48%29.96 "Hg10 mi
5:59 PM77 °FPassing clouds.6 mph52%29.96 "Hg10 mi
4:59 PM78 °FPassing clouds.9 mph54%29.95 "Hg10 mi
3:59 PM79 °FPassing clouds.8 mph52%29.94 "Hg10 mi
2:59 PM77 °FScattered clouds.7 mph56%29.95 "Hg10 mi
1:59 PM76 °FScattered clouds.6 mph60%29.95 "Hg10 mi
12:59 PM75 °FScattered clouds.10 mph62%29.94 "Hg10 mi
11:59 AM76 °FScattered clouds.6 mph58%29.94 "Hg10 mi
10:59 AM76 °FScattered clouds.10 mph60%29.93 "Hg10 mi
9:59 AM75 °FScattered clouds.12 mph62%29.93 "Hg10 mi
8:59 AM73 °FBroken clouds.12 mph64%29.93 "Hg10 mi
7:59 AM72 °FScattered clouds.13 mph68%29.92 "Hg10 mi
6:59 AM71 °FPassing clouds.10 mph68%29.91 "Hg10 mi
5:59 AM69 °FPassing clouds.9 mph73%29.90 "Hg10 mi
4:59 AM70 °FPassing clouds.9 mph71%29.88 "Hg10 mi
3:59 AM71 °FPassing clouds.10 mph66%29.85 "Hg10 mi
2:59 AM73 °FClear.12 mph62%29.85 "Hg10 mi
Weather by CustomWeather, © 2014

See weather overviewHow to use our weather pages